QPF
0.06 0.05 0.05 0.05 0.05 0.04 0.04 0.04 0.04 0.02 0.02 0.02 0.02 0.03 0.04 0.06 0.08 0.08 0.08 0.10 0.11 0.11 0.12 0.12 0.11 0.11 0.10 0.10 0.09 0.08 0.06 0.05 0.04 0.04 0.04 0.03 0.04 0.05
0.09 0.07 0.05 0.04 0.05 0.06 0.06 0.05 0.05 0.03 0.02 0.01 0.02 0.02 0.03 0.03 0.05 0.04 0.05 0.07 0.07 0.08 0.10 0.11 0.11 0.10 0.10 0.10 0.10 0.10 0.10 0.08 0.06 0.04 0.04 0.04 0.05 0.05
0.09 0.08 0.06 0.07 0.07 0.06 0.05 0.04 0.04 0.03 0.02 0.01 0.01 0.01 0.02 0.02 0.03 0.03 0.04 0.04 0.04 0.05 0.05 0.06 0.08 0.09 0.10 0.11 0.11 0.11 0.11 0.10 0.08 0.08 0.08 0.08 0.07 0.07
0.06 0.07 0.06 0.07 0.06 0.05 0.04 0.04 0.04 0.04 0.03 0.02 0.02 0.03 0.03 0.03 0.03 0.04 0.04 0.03 0.03 0.04 0.04 0.05 0.07 0.08 0.09 0.09 0.11 0.14 0.16 0.16 0.14 0.13 0.12 0.10 0.09 0.07
0.05 0.05 0.05 0.06 0.07 0.07 0.06 0.05 0.05 0.05 0.04 0.03 0.03 0.04 0.04 0.04 0.05 0.04 0.03 0.03 0.03 0.03 0.03 0.04 0.05 0.08 0.11 0.15 0.17 0.18 0.16 0.15 0.14 0.13 0.12 0.11 0.11 0.11
0.03 0.04 0.06 0.08 0.10 0.09 0.09 0.08 0.08 0.08 0.08 0.07 0.06 0.06 0.06 0.06 0.05 0.05 0.05 0.04 0.04 0.04 0.05 0.05 0.05 0.06 0.06 0.07 0.08 0.09 0.09 0.10 0.11 0.11 0.11 0.11 0.11 0.11
0.03 0.05 0.06 0.09 0.11 0.11 0.11 0.09 0.08 0.08 0.08 0.08 0.08 0.07 0.07 0.06 0.05 0.05 0.06 0.06 0.07 0.06 0.05 0.05 0.05 0.06 0.07 0.07 0.08 0.07 0.07 0.06 0.06 0.06 0.07 0.08 0.09 0.10
0.04 0.04 0.04 0.04 0.06 0.07 0.07 0.06 0.05 0.04 0.04 0.04 0.05 0.04 0.03 0.02 0.03 0.03 0.04 0.04 0.05 0.05 0.05 0.06 0.06 0.06 0.06 0.06 0.07 0.06 0.06 0.06 0.06 0.07 0.08 0.09 0.10 0.10
0.04 0.03 0.02 0.02 0.02 0.03 0.03 0.02 0.02 0.02 0.02 0.02 0.02 0.01 0.01 0.01 0.01 0.02 0.02 0.02 0.02 0.03 0.03 0.04 0.05 0.05 0.06 0.05 0.05 0.05 0.05 0.06 0.07 0.07 0.09 0.09 0.09 0.07
0.04 0.02 0.02 0.02 0.03 0.03 0.02 0.01 0.01 0.01 0.01 0.01 0.01 0.01 0.01 0.01 0.02 0.02 0.02 0.02 0.03 0.03 0.03 0.04 0.04 0.04 0.05 0.05 0.06 0.05 0.05 0.05 0.05 0.06 0.07 0.07 0.06 0.05
0.03 0.03 0.03 0.03 0.03 0.02 0.01 0.00 0.00 0.01 0.02 0.02 0.01 0.01 0.02 0.02 0.02 0.03 0.04 0.04 0.04 0.04 0.03 0.04 0.05 0.07 0.07 0.08 0.07 0.06 0.05 0.04 0.04 0.04 0.04 0.04 0.04 0.04
0.02 0.01 0.01 0.01 0.01 0.01 0.00 0.01 0.01 0.01 0.02 0.02 0.02 0.02 0.02 0.02 0.03 0.03 0.04 0.04 0.04 0.04 0.04 0.04 0.05 0.07 0.08 0.07 0.06 0.05 0.05 0.05 0.04 0.04 0.03 0.03 0.04 0.03
0.01 0.01 0.01 0.01 0.01 0.01 0.01 0.01 0.02 0.02 0.02 0.02 0.02 0.02 0.02 0.02 0.03 0.04 0.04 0.04 0.04 0.04 0.04 0.04 0.05 0.06 0.06 0.06 0.05 0.04 0.04 0.04 0.03 0.03 0.03 0.03 0.03 0.03
0.02 0.02 0.02 0.02 0.02 0.02 0.02 0.02 0.02 0.02 0.02 0.01 0.01 0.01 0.01 0.01 0.02 0.03 0.04 0.05 0.05 0.05 0.05 0.05 0.06 0.07 0.07 0.07 0.06 0.04 0.03 0.02 0.02 0.02 0.02 0.02 0.02 0.02
0.01 0.01 0.01 0.01 0.01 0.01 0.01 0.01 0.01 0.00 0.00 0.01 0.01 0.01 0.02 0.03 0.04 0.05 0.06 0.06 0.05 0.05 0.04 0.04 0.05 0.06 0.07 0.06 0.05 0.03 0.02 0.02 0.02 0.02 0.02 0.02 0.01 0.01
0.02 0.02 0.02 0.01 0.01 0.01 0.01 0.01 0.00 0.00 0.00 0.00 0.01 0.02 0.03 0.04 0.05 0.05 0.04 0.04 0.03 0.03 0.03 0.04 0.04 0.04 0.04 0.03 0.03 0.02 0.02 0.02 0.02 0.03 0.02 0.02 0.01 0.01
0.01 0.01 0.01 0.01 0.02 0.02 0.02 0.01 0.01 0.01 0.01 0.01 0.01 0.01 0.02 0.03 0.03 0.03 0.02 0.02 0.01 0.02 0.02 0.02 0.02 0.02 0.02 0.02 0.02 0.02 0.02 0.02 0.03 0.03 0.03 0.02 0.01 0.01
0.00 0.01 0.01 0.01 0.00 0.00 0.00 0.00 0.00 0.00 0.00 0.00 0.00 0.01 0.01 0.01 0.01 0.01 0.01 0.01 0.01 0.01 0.01 0.01 0.01 0.01 0.01 0.02 0.02 0.01 0.01 0.02 0.02 0.02 0.02 0.02 0.01 0.01
0.00 0.00 0.00 0.00 0.00 0.00 0.00 0.00 0.00 0.00 0.00 0.00 0.00 0.00 0.00 0.00 0.00 0.00 0.00 0.00 0.01 0.01 0.01 0.01 0.01 0.01 0.01 0.01 0.01 0.01 0.01 0.01 0.02 0.01 0.01 0.01 0.01 0.01
0.01 0.01 0.01 0.00 0.00 0.00 0.00 0.00 0.00 0.00 0.00 0.00 0.00 0.00 0.00 0.00 0.00 0.00 0.00 0.00 0.00 0.00 0.00 0.00 0.00 0.00 0.00 0.00 0.00 0.00 0.01 0.01 0.01 0.01 0.01 0.00 0.00 0.00
0.01 0.01 0.01 0.00 0.00 0.00 0.00 0.00 0.00 0.00 0.00 0.00 0.00 0.00 0.00 0.00 0.00 0.00 0.00 0.00 0.00 0.00 0.00 0.00 0.00 0.00 0.00 0.00 0.00 0.00 0.00 0.01 0.01 0.01 0.00 0.00 0.00 0.00
0.00 0.00 0.00 0.00 0.00 0.00 0.00 0.00 0.00 0.00 0.00 0.00 0.00 0.00 0.00 0.00 0.00 0.00 0.00 0.00 0.00 0.00 0.00 0.00 0.00 0.00 0.00 0.00 0.01 0.01 0.01 0.01 0.00 0.00 0.00 0.00 0.00 0.00
0.00 0.00 0.00 0.00 0.00 0.00 0.00 0.00 0.00 0.00 0.00 0.00 0.00 0.00 0.00 0.00 0.00 0.00 0.00 0.00 0.00 0.00 0.00 0.00 0.00 0.00 0.00 0.00 0.01 0.01 0.01 0.01 0.00 0.00 0.00 0.00 0.00 0.00
MSLP
1020.18 1020.48 1020.81 1021.14 1021.42 1021.64 1021.79 1021.89 1021.96 1022.02 1022.12 1022.26 1022.44 1022.65 1022.85 1023.01 1023.12 1023.14 1023.10 1023.01 1022.90 1022.81 1022.75 1022.75 1022.80 1022.87 1022.93 1022.93 1022.86 1022.69 1022.42 1022.08 1021.71 1021.36 1021.06 1020.86 1020.78 1020.82
1020.43 1020.69 1020.96 1021.21 1021.43 1021.59 1021.70 1021.79 1021.88 1022.00 1022.17 1022.41 1022.70 1023.02 1023.33 1023.59 1023.78 1023.88 1023.89 1023.83 1023.73 1023.65 1023.59 1023.59 1023.64 1023.71 1023.77 1023.80 1023.74 1023.60 1023.37 1023.06 1022.72 1022.40 1022.12 1021.94 1021.87 1021.90
1020.74 1020.96 1021.17 1021.34 1021.48 1021.57 1021.63 1021.68 1021.77 1021.92 1022.15 1022.46 1022.85 1023.27 1023.69 1024.06 1024.34 1024.51 1024.58 1024.57 1024.51 1024.44 1024.40 1024.40 1024.45 1024.53 1024.61 1024.65 1024.63 1024.53 1024.34 1024.09 1023.80 1023.53 1023.29 1023.15 1023.09 1023.14
1021.11 1021.30 1021.45 1021.56 1021.62 1021.64 1021.63 1021.65 1021.72 1021.87 1022.13 1022.49 1022.95 1023.45 1023.95 1024.40 1024.77 1025.02 1025.16 1025.20 1025.18 1025.13 1025.11 1025.12 1025.18 1025.26 1025.36 1025.43 1025.44 1025.39 1025.26 1025.07 1024.85 1024.63 1024.45 1024.35 1024.32 1024.38
1021.55 1021.72 1021.84 1021.90 1021.89 1021.85 1021.78 1021.75 1021.78 1021.91 1022.17 1022.55 1023.04 1023.58 1024.14 1024.66 1025.08 1025.39 1025.59 1025.68 1025.70 1025.69 1025.69 1025.71 1025.78 1025.87 1025.98 1026.08 1026.13 1026.12 1026.04 1025.92 1025.77 1025.61 1025.50 1025.43 1025.44 1025.51
1022.02 1022.20 1022.31 1022.34 1022.31 1022.21 1022.10 1022.02 1022.00 1022.10 1022.33 1022.70 1023.18 1023.73 1024.30 1024.84 1025.31 1025.66 1025.90 1026.04 1026.09 1026.11 1026.13 1026.16 1026.24 1026.34 1026.46 1026.57 1026.65 1026.69 1026.66 1026.60 1026.51 1026.42 1026.35 1026.33 1026.36 1026.45
1022.53 1022.73 1022.85 1022.88 1022.83 1022.71 1022.57 1022.45 1022.39 1022.44 1022.63 1022.95 1023.39 1023.92 1024.48 1025.01 1025.48 1025.86 1026.12 1026.28 1026.37 1026.41 1026.44 1026.49 1026.56 1026.67 1026.80 1026.92 1027.02 1027.08 1027.10 1027.08 1027.04 1027.00 1026.97 1026.98 1027.03 1027.12
1023.02 1023.25 1023.40 1023.45 1023.41 1023.30 1023.14 1023.00 1022.91 1022.92 1023.05 1023.31 1023.70 1024.18 1024.69 1025.20 1025.65 1026.02 1026.29 1026.46 1026.56 1026.61 1026.65 1026.70 1026.78 1026.88 1027.01 1027.13 1027.24 1027.32 1027.37 1027.38 1027.37 1027.36 1027.36 1027.38 1027.43 1027.51
1023.48 1023.74 1023.92 1024.00 1023.99 1023.89 1023.75 1023.60 1023.49 1023.46 1023.55 1023.76 1024.08 1024.50 1024.96 1025.41 1025.83 1026.17 1026.43 1026.60 1026.70 1026.76 1026.80 1026.84 1026.91 1027.00 1027.11 1027.23 1027.34 1027.42 1027.48 1027.50 1027.51 1027.51 1027.52 1027.53 1027.57 1027.63
1023.87 1024.15 1024.35 1024.47 1024.49 1024.43 1024.31 1024.17 1024.07 1024.02 1024.08 1024.24 1024.51 1024.86 1025.26 1025.66 1026.03 1026.34 1026.57 1026.73 1026.82 1026.87 1026.90 1026.93 1026.98 1027.05 1027.14 1027.24 1027.34 1027.41 1027.46 1027.49 1027.49 1027.49 1027.48 1027.48 1027.50 1027.53
1024.19 1024.46 1024.68 1024.82 1024.88 1024.86 1024.77 1024.67 1024.58 1024.54 1024.58 1024.71 1024.93 1025.23 1025.58 1025.92 1026.25 1026.52 1026.72 1026.85 1026.93 1026.96 1026.97 1026.99 1027.02 1027.07 1027.13 1027.20 1027.27 1027.33 1027.36 1027.37 1027.36 1027.34 1027.31 1027.29 1027.27 1027.26
1024.43 1024.70 1024.92 1025.08 1025.16 1025.17 1025.13 1025.05 1024.99 1024.97 1025.01 1025.13 1025.32 1025.58 1025.88 1026.18 1026.46 1026.69 1026.86 1026.97 1027.02 1027.04 1027.04 1027.03 1027.04 1027.06 1027.10 1027.14 1027.18 1027.21 1027.21 1027.20 1027.17 1027.12 1027.06 1027.01 1026.96 1026.92
1024.62 1024.87 1025.08 1025.25 1025.35 1025.38 1025.37 1025.34 1025.30 1025.30 1025.35 1025.47 1025.64 1025.87 1026.13 1026.40 1026.64 1026.83 1026.98 1027.07 1027.10 1027.10 1027.09 1027.07 1027.05 1027.05 1027.06 1027.07 1027.08 1027.08 1027.05 1027.01 1026.94 1026.87 1026.78 1026.69 1026.62 1026.55
1024.78 1025.01 1025.21 1025.37 1025.47 1025.53 1025.54 1025.53 1025.53 1025.55 1025.61 1025.72 1025.89 1026.09 1026.32 1026.55 1026.76 1026.93 1027.06 1027.13 1027.15 1027.15 1027.12 1027.09 1027.07 1027.05 1027.03 1027.02 1027.00 1026.96 1026.90 1026.83 1026.73 1026.62 1026.51 1026.40 1026.30 1026.21
1024.91 1025.13 1025.31 1025.47 1025.57 1025.63 1025.66 1025.67 1025.68 1025.71 1025.78 1025.89 1026.05 1026.23 1026.44 1026.64 1026.82 1026.97 1027.08 1027.14 1027.16 1027.16 1027.14 1027.11 1027.08 1027.05 1027.02 1026.99 1026.94 1026.87 1026.78 1026.68 1026.55 1026.41 1026.27 1026.14 1026.02 1025.91
1025.01 1025.21 1025.39 1025.53 1025.64 1025.70 1025.73 1025.75 1025.78 1025.82 1025.89 1025.99 1026.13 1026.29 1026.47 1026.64 1026.80 1026.93 1027.03 1027.09 1027.13 1027.14 1027.13 1027.11 1027.09 1027.06 1027.03 1026.98 1026.91 1026.81 1026.70 1026.56 1026.40 1026.24 1026.07 1025.92 1025.78 1025.66
1025.02 1025.23 1025.41 1025.55 1025.65 1025.71 1025.75 1025.78 1025.81 1025.85 1025.92 1026.01 1026.14 1026.28 1026.43 1026.57 1026.71 1026.83 1026.92 1026.99 1027.03 1027.06 1027.08 1027.09 1027.09 1027.07 1027.04 1026.98 1026.89 1026.78 1026.63 1026.46 1026.28 1026.08 1025.89 1025.72 1025.56 1025.43
1024.90 1025.12 1025.31 1025.45 1025.56 1025.63 1025.68 1025.72 1025.76 1025.81 1025.88 1025.97 1026.08 1026.20 1026.32 1026.44 1026.56 1026.66 1026.75 1026.83 1026.89 1026.95 1026.99 1027.03 1027.05 1027.05 1027.03 1026.97 1026.87 1026.74 1026.57 1026.37 1026.15 1025.93 1025.71 1025.51 1025.33 1025.18
1024.60 1024.84 1025.04 1025.20 1025.32 1025.42 1025.49 1025.56 1025.63 1025.70 1025.78 1025.87 1025.97 1026.07 1026.18 1026.28 1026.38 1026.47 1026.55 1026.64 1026.72 1026.80 1026.87 1026.94 1026.98 1027.00 1026.99 1026.93 1026.83 1026.68 1026.48 1026.26 1026.01 1025.75 1025.51 1025.27 1025.07 1024.89
1024.10 1024.35 1024.57 1024.75 1024.91 1025.04 1025.17 1025.28 1025.39 1025.50 1025.61 1025.72 1025.83 1025.93 1026.02 1026.11 1026.19 1026.27 1026.35 1026.43 1026.53 1026.62 1026.72 1026.81 1026.87 1026.91 1026.91 1026.85 1026.74 1026.57 1026.35 1026.10 1025.82 1025.54 1025.26 1024.99 1024.76 1024.54
1023.39 1023.66 1023.91 1024.13 1024.33 1024.53 1024.71 1024.89 1025.06 1025.23 1025.39 1025.54 1025.67 1025.78 1025.88 1025.96 1026.03 1026.09 1026.16 1026.24 1026.34 1026.44 1026.55 1026.65 1026.73 1026.77 1026.77 1026.71 1026.59 1026.41 1026.17 1025.89 1025.59 1025.27 1024.96 1024.67 1024.40 1024.16
1022.55 1022.84 1023.12 1023.38 1023.64 1023.91 1024.17 1024.43 1024.68 1024.93 1025.15 1025.35 1025.52 1025.65 1025.76 1025.84 1025.90 1025.95 1026.01 1026.08 1026.17 1026.27 1026.37 1026.47 1026.55 1026.59 1026.59 1026.52 1026.39 1026.19 1025.93 1025.64 1025.31 1024.97 1024.64 1024.32 1024.03 1023.76
1021.66 1021.97 1022.28 1022.60 1022.92 1023.26 1023.60 1023.95 1024.29 1024.62 1024.91 1025.17 1025.39 1025.55 1025.67 1025.75 1025.81 1025.86 1025.90 1025.95 1026.02 1026.10 1026.19 1026.27 1026.34 1026.37 1026.35 1026.27 1026.13 1025.92 1025.65 1025.34 1025.00 1024.65 1024.30 1023.97 1023.66 1023.37
Thickness
5721 5719 5717 5716 5716 5714 5712 5710 5704 5700 5699 5700 5701 5702 5701 5700 5699 5699 5698 5698 5697 5696 5694 5692 5691 5689 5687 5685 5682 5681 5679 5678 5676 5674 5673 5671 5670 5669
5718 5716 5715 5714 5713 5711 5710 5708 5706 5701 5696 5696 5695 5695 5695 5694 5693 5692 5692 5691 5689 5688 5687 5685 5683 5681 5679 5677 5675 5673 5671 5670 5668 5666 5664 5663 5662 5661
5715 5714 5712 5711 5709 5708 5706 5704 5702 5699 5694 5692 5691 5690 5688 5687 5686 5685 5684 5682 5681 5679 5678 5677 5675 5672 5670 5668 5666 5664 5662 5660 5658 5657 5655 5654 5652 5651
5711 5710 5708 5707 5705 5703 5701 5699 5697 5694 5691 5686 5684 5683 5681 5679 5678 5677 5675 5673 5671 5669 5668 5666 5665 5663 5661 5658 5656 5654 5652 5650 5648 5647 5645 5643 5641 5639
5706 5704 5703 5701 5698 5697 5695 5693 5691 5689 5685 5681 5678 5675 5672 5670 5669 5667 5665 5663 5661 5658 5656 5654 5652 5651 5649 5647 5645 5643 5641 5639 5637 5635 5632 5630 5628 5627
5701 5698 5696 5694 5692 5690 5688 5686 5684 5680 5677 5674 5670 5667 5663 5661 5659 5656 5654 5652 5649 5647 5644 5642 5640 5638 5636 5634 5632 5630 5627 5625 5623 5622 5619 5618 5615 5613
5693 5691 5689 5687 5685 5683 5680 5677 5675 5671 5668 5664 5661 5657 5654 5650 5648 5646 5644 5641 5638 5635 5633 5630 5628 5625 5623 5620 5618 5616 5613 5611 5609 5608 5606 5604 5602 5600
5685 5682 5680 5678 5675 5673 5671 5668 5666 5662 5659 5655 5651 5648 5644 5642 5639 5638 5634 5632 5628 5623 5621 5618 5615 5612 5609 5607 5604 5602 5599 5597 5595 5593 5591 5590 5588 5586
5676 5674 5671 5668 5665 5663 5660 5658 5655 5652 5650 5647 5643 5639 5636 5634 5631 5629 5625 5622 5617 5612 5610 5606 5602 5599 5595 5593 5590 5588 5585 5583 5581 5579 5577 5575 5573 5572
5667 5664 5661 5658 5656 5654 5652 5649 5645 5642 5640 5637 5634 5631 5629 5626 5623 5620 5616 5611 5606 5602 5599 5595 5590 5586 5583 5579 5576 5574 5571 5569 5566 5564 5562 5560 5558 5557
5658 5655 5652 5649 5647 5645 5643 5639 5636 5632 5630 5627 5625 5621 5619 5616 5614 5610 5606 5603 5597 5591 5586 5583 5578 5574 5570 5567 5564 5561 5558 5556 5553 5551 5549 5546 5544 5543
5649 5645 5643 5640 5637 5635 5632 5630 5626 5622 5619 5617 5614 5611 5608 5605 5603 5599 5596 5592 5587 5582 5575 5571 5567 5563 5560 5555 5552 5549 5546 5544 5541 5538 5536 5534 5532 5530
5640 5636 5632 5630 5628 5625 5622 5619 5615 5612 5609 5607 5604 5601 5598 5595 5591 5587 5584 5581 5577 5571 5565 5562 5557 5553 5549 5545 5542 5538 5535 5532 5530 5527 5524 5522 5520 5518
5630 5627 5623 5621 5618 5615 5612 5609 5606 5603 5600 5597 5593 5589 5586 5582 5578 5575 5572 5568 5565 5561 5556 5552 5548 5544 5540 5536 5532 5528 5525 5521 5518 5516 5513 5511 5509 5507
5621 5618 5615 5612 5609 5605 5602 5599 5596 5593 5590 5586 5582 5577 5573 5569 5567 5564 5560 5557 5553 5549 5545 5542 5538 5534 5531 5527 5523 5518 5515 5511 5508 5505 5502 5500 5498 5496
5612 5609 5606 5602 5599 5595 5592 5588 5585 5582 5578 5574 5570 5566 5563 5560 5556 5552 5549 5546 5543 5538 5534 5531 5527 5524 5521 5517 5513 5509 5505 5502 5499 5496 5493 5491 5489 5487
5604 5600 5596 5592 5588 5584 5581 5577 5574 5572 5568 5564 5560 5556 5553 5549 5545 5541 5537 5535 5532 5528 5525 5521 5518 5515 5511 5508 5505 5501 5497 5494 5490 5487 5485 5484 5481 5479
5595 5590 5585 5581 5577 5573 5570 5567 5564 5560 5557 5553 5550 5546 5542 5539 5535 5531 5527 5524 5521 5518 5514 5511 5508 5507 5504 5500 5495 5493 5490 5487 5483 5479 5477 5476 5475 5473
5586 5580 5575 5571 5567 5563 5560 5557 5554 5549 5546 5543 5540 5536 5533 5529 5525 5522 5518 5515 5512 5509 5505 5501 5499 5497 5497 5494 5489 5484 5482 5480 5477 5474 5472 5469 5468 5467
5576 5571 5566 5562 5558 5555 5552 5548 5544 5541 5537 5534 5530 5527 5523 5520 5516 5513 5509 5506 5504 5500 5498 5494 5491 5488 5486 5484 5481 5478 5475 5472 5471 5470 5467 5464 5462 5460
5567 5562 5558 5555 5551 5547 5543 5539 5536 5532 5528 5525 5521 5518 5515 5511 5508 5505 5502 5497 5495 5493 5491 5488 5483 5479 5476 5474 5474 5474 5471 5468 5465 5463 5461 5460 5459 5457
5559 5555 5551 5548 5544 5540 5536 5532 5528 5525 5521 5517 5514 5510 5507 5504 5501 5497 5494 5492 5488 5486 5483 5480 5477 5474 5472 5471 5471 5469 5467 5464 5462 5459 5456 5454 5453 5454
5552 5548 5545 5541 5537 5533 5530 5526 5522 5518 5514 5511 5507 5503 5500 5497 5493 5490 5488 5485 5482 5479 5476 5474 5472 5469 5467 5465 5463 5462 5460 5459 5457 5456 5454 5451 5449 5447